Regional Weather Roundup
Issued by NWS

Home | Current Version | Previous Version | Text Only | Print | Product List | Glossary Off
Versions: 1 2 3 4 5 6 7 8 9 10 11 12 13 14 15 16 17 18 19 20 21 22 23 24 25 26 27 28 29 30 31 32 33 34 35 36 37 38 39 40 41 42 43 44 45 46 47 48 49 50

000
ASUS43 KOAX 231410
RWRNE

WEATHER ROUNDUP FOR NEBRASKA
NATIONAL WEATHER SERVICE OMAHA NE
900 AM CDT SAT SEP 23 2017

NOTES: SATELLITE DATA IS BEING USED TO AUGMENT CLOUD COVER ABOVE
       12000 FEET.
       "FAIR" INDICATES FEW OR NO CLOUDS BELOW 12,000 FEET WITH NO
       SIGNIFICANT WEATHER AND/OR OBSTRUCTIONS TO VISIBILITY.


NEZ001>004-019>022-054>056-231500-
NEBRASKA PANHANDLE

CITY           SKY/WX    TMP DP  RH WIND       PRES   REMARKS
SCOTTSBLUFF    CLOUDY    46  39  76 N7        30.01S
ALLIANCE       CLOUDY    43  42  97 NE8       30.01R FOG
CHADRON        CLOUDY    45  41  86 NE7       30.05R
GORDON         CLOUDY    43  42  95 N10       30.02F FOG
KIMBALL        CLOUDY    43  41  95 NE13      30.00F
SIDNEY         CLOUDY    45  42  89 N12       30.01R FOG
$$

NEZ057>060-069>072-079>082-231500-
SOUTHWEST NEBRASKA

CITY           SKY/WX    TMP DP  RH WIND       PRES   REMARKS
NORTH PLATTE   CLOUDY    52  50  93 NE12      29.94S
IMPERIAL       CLOUDY    53  48  83 N13       29.93R
LEXINGTON      CLOUDY    63  56  78 E7        29.92S
MCCOOK         CLOUDY    72  66  81 E8        29.88R
OGALLALA       CLOUDY    50  48  93 NE10      29.95F
$$

NEZ005>010-023>029-035>040-094-231500-
NORTH CENTRAL NEBRASKA

CITY           SKY/WX    TMP DP  RH WIND       PRES   REMARKS
VALENTINE      TSTM      49  47  93 N12       30.00F FOG
AINSWORTH      RAIN      48  48 100 N13       29.99S
BROKEN BOW     CLOUDY    54  50  86 N9        29.95R
O`NEILL        CLOUDY    54  53  99 NE6       29.98R
ORD            CLOUDY    57  52  83 NE6       29.93F
THEDFORD       DRIZZLE   49  48  96 N7        30.00R
$$

NEZ041-046>049-061>064-073>077-083>087-231500-
SOUTH CENTRAL NEBRASKA

CITY           SKY/WX    TMP DP  RH WIND       PRES   REMARKS
GRAND ISLAND   CLOUDY    69  68  96 E5        29.94S
AURORA         CLOUDY    72  68  86 S6        29.94S
HASTINGS       PTSUNNY   73  64  73 S6        29.94R
HEBRON         PTSUNNY   75  66  73 S10G16    29.94R
HOLDREGE       CLOUDY    72  64  77 S8        29.91S
KEARNEY        MOSUNNY   71  65  81 VRB3      29.93R
YORK           PTSUNNY   72  66  83 S9        29.94R
$$

NEZ011>018-030>034-042>045-231500-
NORTHEAST NEBRASKA

CITY           SKY/WX    TMP DP  RH WIND       PRES   REMARKS
NORFOLK        CLOUDY    61  59  93 E6        29.93F
ALBION         PTSUNNY   61  57  88 NE6       29.95S
BLAIR          SUNNY     75  68  79 S10       29.96S
COLUMBUS       CLOUDY    73  67  81 S5        29.96R
FREMONT        MOSUNNY   75  67  76 SE3       29.96R
TEKAMAH        MOSUNNY   74  68  81 SE9       29.95R
WAYNE          CLOUDY    60  57  91 NE3       29.96F
$$

NEZ050>053-065>068-078-088>093-231500-
SOUTHEAST NEBRASKA

CITY           SKY/WX    TMP DP  RH WIND       PRES   REMARKS
LINCOLN        SUNNY     75  67  76 S9        29.95R
OMAHA EPPLEY   PTSUNNY   76  67  73 SE12      29.97R
BEATRICE       SUNNY     75  67  77 S7        29.97R
FALLS CITY     SUNNY     75  68  78 SE8       29.98R
NEBRASKA CITY  SUNNY     74  71  92 S9        29.99R
PLATTSMOUTH    SUNNY     73  69  86 SE12      29.98S
$$

NEZ044-045-051>053-067-231500-
OMAHA AREA

CITY           SKY/WX    TMP DP  RH WIND       PRES   REMARKS
OMAHA EPPLEY   PTSUNNY   76  67  73 SE12      29.97R
BLAIR          SUNNY     75  68  79 S10       29.96S
FREMONT        MOSUNNY   75  67  76 SE3       29.96R
MILLARD        SUNNY     75  69  81 SE8       29.97R
OFFUTT AFB     SUNNY     74  67  79 SE12      29.97R
PLATTSMOUTH    SUNNY     73  69  86 SE12      29.98S
WAHOO          FAIR      75  67  78 SE10      29.95R
$$




USA.gov is the U.S. government's official web portal to all federal, state and local government web resources and services.